Dewpoint
33 40 42 43 43 43 43 43 42 41 39 38 36 34 33 33 32 33 35 34 33 33 38 42 42 42 41 41 42 44 45 45 46 45 44 45 45 45 45 45 45 45 45
34 35 36 39 40 42 43 43 42 41 40 39 38 36 34 34 34 35 32 31 32 35 42 41 41 40 40 40 41 43 44 45 46 44 44 42 41 44 44 44 44 43 44
33 35 36 37 39 40 42 44 43 42 41 40 39 36 34 32 30 30 31 32 33 42 42 41 40 40 40 40 42 44 45 46 46 46 45 43 41 43 43 43 43 43 44
32 34 35 36 38 39 41 43 43 43 42 41 39 36 34 32 30 31 33 32 38 41 41 41 41 41 41 41 42 42 44 46 46 46 46 45 45 43 42 43 43 43 43
28 30 32 34 37 37 38 41 42 43 43 43 40 38 36 34 32 32 30 30 39 41 41 41 42 42 41 41 42 42 43 45 46 46 45 44 44 44 42 41 42 43 44
25 27 28 30 33 35 37 38 41 42 43 44 43 40 38 35 31 29 28 29 37 40 41 41 42 42 42 43 44 44 44 45 46 46 45 44 44 43 43 42 43 43 43
26 27 28 29 29 30 32 35 38 40 42 43 43 42 39 35 31 29 28 29 34 38 39 41 41 42 42 43 44 44 45 46 46 46 46 46 46 46 45 44 43 42 43
28 29 30 30 30 30 31 32 33 36 39 40 42 43 40 35 31 30 29 29 32 36 39 40 41 41 41 42 44 44 45 44 45 45 45 45 45 46 45 44 43 42 40
29 30 31 30 30 30 31 32 33 34 35 36 40 41 39 34 31 29 29 28 31 35 39 40 40 40 42 42 43 44 43 43 44 43 43 45 45 46 46 45 44 43 40
29 30 30 30 30 31 31 32 33 34 34 35 37 39 38 34 31 28 26 27 28 30 35 39 39 40 40 41 42 42 42 42 43 42 44 43 44 44 44 45 46 45 44
28 30 30 30 30 31 31 32 32 34 35 36 38 39 37 33 29 26 26 26 27 27 32 35 38 40 39 39 38 38 38 40 39 40 40 41 41 42 42 43 43 43 44
29 30 30 29 30 31 31 32 32 33 34 36 38 39 38 34 29 26 25 26 25 26 27 30 35 37 38 39 39 38 37 37 37 37 37 37 37 37 38 38 39 41 42
30 30 30 30 30 31 31 31 31 32 34 36 38 39 37 32 29 27 26 26 25 25 26 28 29 30 33 35 35 35 35 35 36 35 34 33 35 34 34 35 36 38 41
30 31 30 30 31 31 31 30 31 32 33 34 36 38 38 36 33 31 29 27 26 25 25 27 28 30 31 32 32 31 33 32 32 32 33 34 34 34 35 38 39 40 40
30 30 30 30 29 29 29 30 31 32 32 32 34 36 39 38 36 34 32 30 28 27 27 27 28 29 30 31 31 31 31 32 33 34 34 35 36 37 39 40 41 41 41
30 30 29 28 28 28 29 29 30 30 31 31 32 37 39 39 37 35 33 31 30 29 28 27 27 27 29 30 31 32 32 32 33 32 33 34 36 37 40 39 39 39 38
30 29 27 27 28 28 28 28 29 30 29 30 31 33 35 36 37 36 34 32 31 30 28 27 27 27 28 30 32 32 32 32 32 32 32 33 35 34 35 37 37 37 37
30 27 27 28 27 27 27 28 29 28 28 29 30 31 32 33 34 34 34 33 32 30 29 28 28 27 28 31 31 32 31 31 32 32 32 33 34 35 36 36 34 34 34
29 28 28 29 27 26 27 28 27 27 27 27 28 30 32 32 32 32 32 32 32 31 30 30 29 28 28 30 31 31 30 30 30 31 32 31 34 34 34 35 32 31 31
28 28 28 27 24 24 27 27 25 25 25 27 28 30 31 31 31 32 32 32 31 31 30 30 29 29 29 30 31 31 31 30 29 31 31 31 31 32 32 31 30 29 29
28 29 26 23 22 24 26 24 24 23 26 28 29 29 29 30 31 32 32 31 31 30 29 28 28 28 28 27 29 30 30 30 29 29 29 30 30 31 32 31 30 30 30
29 26 23 21 22 24 24 23 22 24 27 28 28 28 28 29 29 30 31 31 30 29 28 27 27 27 26 28 29 30 31 31 30 29 29 29 31 30 30 30 30 30 29
28 24 21 20 21 22 23 22 23 25 27 28 28 28 29 29 30 30 30 30 30 29 28 27 27 26 26 25 26 28 30 31 31 31 31 31 31 31 31 31 29 29 28
24 22 21 20 19 20 22 23 24 26 27 27 27 28 29 30 30 30 31 30 30 30 29 28 27 27 26 25 25 24 25 28 31 31 32 32 31 30 29 29 29 27 26
23 22 20 20 19 19 20 23 25 26 27 27 27 28 29 30 30 30 30 30 31 31 31 31 30 29 28 28 28 27 25 25 26 29 28 28 27 26 25 24 25 25 25
21 21 21 20 19 20 21 23 25 26 25 25 26 27 29 30 30 29 29 30 32 33 33 34 34 34 34 34 33 32 31 30 30 27 26 26 26 25 25 24 24 24 24
Wind_Speed
9 6 6 6 7 4 1 2 3 6 4 4 6 5 4 7 6 9 9 9 9 8 9 6 8 9 10 11 12 10 11 11 9 8 12 10 15 14 12 10 7 6 6
10 8 7 7 7 5 6 8 6 6 8 6 5 3 5 5 5 6 6 8 9 9 5 5 7 9 11 11 10 9 7 5 7 5 8 6 10 7 9 6 2 8 6
9 10 10 8 6 10 13 13 12 10 9 9 5 4 4 4 5 6 8 8 10 8 2 4 6 8 8 9 9 8 7 7 9 8 3 5 4 15 6 10 7 8 9
11 10 12 11 9 12 11 12 13 12 10 8 7 7 8 10 4 7 7 10 9 5 4 5 4 6 7 8 8 7 9 6 9 9 2 3 5 4 8 4 12 7 14
12 14 16 17 15 14 13 12 12 13 13 10 10 10 11 10 9 9 10 10 8 6 6 6 7 7 7 8 9 10 10 8 7 6 3 6 6 6 5 12 9 12 8
14 15 14 14 14 16 16 15 15 17 14 12 13 14 14 13 11 10 11 11 8 8 7 7 8 8 8 9 10 10 9 10 9 8 6 7 5 7 7 12 16 17 12
13 15 15 17 17 17 17 16 15 20 17 14 14 15 16 12 11 11 10 11 10 9 10 7 9 9 9 9 9 10 11 10 10 11 10 8 8 10 10 11 14 14 13
13 14 14 15 15 17 18 17 16 16 16 15 17 15 14 12 11 10 10 10 10 11 10 9 9 11 11 10 9 8 9 10 9 11 9 9 10 11 12 10 11 16 17
14 16 16 14 15 16 18 17 16 16 15 15 14 13 13 13 13 11 8 9 10 9 10 9 10 11 11 12 12 10 11 10 10 11 13 10 9 10 9 11 10 10 18
15 17 17 15 13 14 16 17 15 14 15 14 13 12 12 12 11 8 11 10 11 9 10 10 10 10 10 10 10 10 10 12 10 10 8 9 8 10 10 9 8 7 13
15 17 16 15 13 14 18 19 18 17 16 13 12 11 12 11 10 11 11 10 9 10 10 10 11 11 12 11 9 9 10 10 12 10 11 12 11 9 8 8 8 10 11
12 15 14 14 15 19 20 20 19 18 17 14 11 12 11 11 11 12 11 10 11 10 10 10 10 11 11 10 10 11 10 12 14 10 8 11 11 13 13 10 11 12 12
15 14 14 17 17 18 18 19 20 20 17 14 13 12 12 11 13 13 12 11 11 11 10 10 11 12 11 11 11 11 11 11 10 8 10 12 11 11 12 14 14 13 13
12 13 16 16 16 17 17 19 20 18 18 18 15 15 14 13 13 13 12 12 11 12 12 11 12 11 11 11 12 12 10 9 9 11 11 11 13 13 12 14 15 14 15
14 17 19 19 17 17 17 17 18 17 16 17 16 16 14 12 12 13 13 12 11 12 12 12 12 12 11 10 10 9 10 10 11 10 11 11 13 15 14 10 11 11 12
17 17 15 16 17 17 18 17 18 19 15 15 15 14 13 13 13 13 13 13 14 14 13 14 13 13 11 12 13 13 11 11 11 12 11 12 14 13 10 14 15 13 14
15 15 15 14 16 17 16 17 17 15 16 16 15 15 13 14 16 15 14 14 15 13 15 15 14 16 15 14 14 14 13 12 12 12 12 12 11 11 11 12 15 15 15
13 14 14 15 15 15 17 16 16 15 15 15 16 16 16 16 16 14 15 17 15 16 17 17 16 17 15 15 15 15 13 12 13 13 13 13 14 10 11 12 12 13 12
11 10 9 10 13 15 15 16 17 17 16 17 17 17 16 15 15 16 16 16 16 16 17 16 17 18 18 16 16 15 14 16 17 14 13 13 14 12 12 11 13 14 13
11 9 8 7 11 14 13 15 17 16 17 18 18 18 17 17 18 17 17 11 12 17 14 18 17 19 20 16 18 17 14 17 16 13 15 15 15 15 14 13 12 15 13
12 8 7 8 11 12 10 14 16 17 16 15 16 16 16 16 15 16 13 15 17 17 17 19 17 18 18 21 21 21 17 18 16 15 14 13 13 14 15 15 12 13 12
12 9 10 11 10 10 10 13 16 18 18 17 18 17 16 16 16 17 16 15 15 17 18 17 20 15 16 20 21 22 24 20 17 18 13 13 13 14 15 15 15 15 15
13 9 10 14 12 10 8 14 16 16 16 15 16 16 16 16 15 17 19 19 16 15 17 16 18 19 15 15 19 21 24 25 23 16 16 15 16 16 16 14 17 16 11
12 10 11 13 18 12 11 12 16 17 16 19 19 18 17 18 16 15 14 14 16 15 14 16 18 18 17 16 14 15 16 20 21 19 17 15 15 15 15 15 13 10 10
11 9 11 15 18 18 18 14 14 13 15 16 16 17 15 16 17 15 15 15 14 15 18 18 17 19 21 20 17 16 14 14 18 14 12 14 13 14 14 14 13 11 10
12 12 14 14 18 19 20 15 14 12 13 15 13 13 14 14 14 16 18 15 17 19 23 24 23 22 26 30 29 25 22 21 19 13 15 16 15 16 13 14 13 12 12
Wind_Direction
15 32 30 56 78 67 354 284 290 286 295 310 316 310 312 325 324 331 331 336 332 336 335 344 346 348 342 330 323 319 324 318 324 321 326 306 293 287 284 300 306 328 334
352 347 342 347 357 320 302 272 244 235 259 251 259 261 304 302 295 314 335 332 333 331 332 358 349 341 334 331 325 325 323 304 323 314 316 335 327 22 336 334 317 318 317
341 341 340 328 329 316 285 273 272 266 237 249 265 289 314 308 322 332 327 329 323 329 319 350 346 340 335 330 324 324 334 324 318 323 289 331 329 337 312 318 322 336 333
323 316 317 314 318 279 268 264 263 257 255 250 252 266 285 296 268 304 294 313 320 331 309 324 332 326 322 322 318 321 318 312 312 321 72 339 305 326 320 340 311 336 329
333 319 315 304 295 291 284 270 257 256 259 251 241 253 265 264 282 293 301 310 315 315 301 307 311 309 316 311 311 319 309 305 296 302 327 331 319 285 279 308 316 314 307
344 339 333 336 319 308 296 287 277 268 258 248 247 247 257 272 286 298 305 310 308 299 318 307 310 308 310 312 315 311 309 314 308 309 299 292 283 286 287 298 306 302 308
338 329 332 333 332 329 323 313 292 277 275 265 254 248 248 253 269 285 292 300 304 309 317 317 309 303 302 302 306 314 322 323 317 311 300 291 283 279 275 281 291 295 304
324 319 320 322 328 332 331 325 316 304 287 277 267 258 250 249 260 269 276 283 293 300 296 299 299 302 295 288 292 291 295 297 307 303 304 305 303 292 270 263 278 292 292
324 325 325 326 328 334 333 330 321 312 308 300 279 264 247 240 254 269 270 281 288 292 295 285 291 299 303 301 295 277 277 277 283 293 294 289 293 300 295 276 261 268 296
325 334 331 323 319 326 329 329 325 307 304 304 294 274 258 244 254 262 272 277 284 288 291 286 282 285 291 295 306 316 314 318 310 292 291 296 295 302 299 296 301 278 276
322 326 324 318 317 325 334 329 327 323 314 310 302 279 266 256 260 261 269 270 278 280 278 277 279 277 278 279 278 285 297 294 299 294 309 317 318 309 308 303 295 290 284
315 321 326 331 334 333 333 331 329 328 319 311 302 284 274 264 259 264 269 271 273 276 273 278 278 279 281 281 282 285 279 281 284 282 292 305 314 315 308 305 300 296 289
325 330 337 335 330 328 331 333 333 330 327 319 307 293 276 265 262 265 265 266 265 267 270 272 275 279 278 278 279 277 277 279 284 286 294 294 292 297 296 293 284 284 283
328 330 331 329 328 330 331 332 331 332 330 328 313 297 286 275 276 280 277 271 264 267 270 268 271 273 276 277 278 277 273 278 286 292 290 285 282 278 284 295 286 285 284
332 332 330 332 330 329 329 331 330 334 335 331 326 305 296 286 281 281 280 277 271 270 270 274 274 275 273 268 270 264 264 270 284 283 280 277 272 268 291 304 314 312 296
330 327 329 333 334 330 329 331 333 334 339 341 335 326 311 299 290 286 283 280 275 271 271 270 270 275 269 263 268 270 265 258 270 288 288 287 286 280 287 301 303 303 302
321 321 325 329 331 334 333 336 333 336 346 349 349 346 334 315 303 297 296 289 282 276 271 268 266 267 266 265 265 266 267 258 260 275 282 283 278 291 288 288 296 300 301
320 323 325 331 335 335 338 337 342 346 350 352 349 348 343 331 320 310 298 295 291 286 282 278 271 270 268 266 267 266 266 259 256 261 267 269 274 274 279 282 294 298 303
308 301 305 314 323 330 334 337 342 345 349 350 346 340 335 328 324 319 311 300 295 289 281 275 277 272 271 260 261 259 256 257 257 254 256 266 265 265 272 279 292 294 293
297 289 309 316 326 329 335 339 337 339 343 340 337 335 336 334 328 319 317 306 295 292 285 285 273 269 270 262 263 259 252 258 259 251 251 258 264 265 262 267 270 280 283
284 279 289 305 313 320 335 333 330 331 327 327 329 330 332 331 324 319 311 311 309 301 293 286 280 268 264 268 258 255 247 244 252 249 250 246 257 268 265 266 263 263 277
273 267 289 298 303 311 326 322 323 320 324 326 327 325 327 328 326 328 323 315 311 309 303 295 292 278 264 259 264 256 247 244 243 251 250 250 252 261 264 266 270 274 279
266 276 285 300 305 304 308 304 301 307 313 317 318 319 321 325 323 322 322 324 320 309 303 297 291 291 282 264 263 267 259 251 245 241 241 249 254 259 265 273 276 273 262
276 285 300 303 309 306 293 284 290 301 315 318 320 322 319 321 318 311 302 300 301 301 296 295 294 291 289 283 272 264 266 257 245 244 243 242 248 251 262 272 265 257 236
285 297 298 301 302 308 306 297 290 301 307 309 309 312 310 307 309 304 302 302 290 286 294 289 283 286 288 282 273 262 260 255 244 235 236 239 243 253 258 264 253 246 245
295 295 299 297 297 298 294 289 293 295 298 305 301 299 298 297 299 302 305 300 296 300 299 295 290 287 277 278 278 271 264 254 248 243 232 233 232 239 247 255 252 243 243